Tracking 27380 objects as of 6-Jun-2023
HD Live streaming from Space Station
objects crossing your sky now

BDSAT

Track BDSAT now!
10-day predictions
BDSAT is classified as:


NORAD ID: 52175
Int'l Code: 2022-033U
Perigee: 452.2 km
Apogee: 466.6 km
Inclination: 97.4 °
Period: 93.6 minutes
Semi major axis: 6830 km
RCS: Unknown
Launch date: April 1, 2022
Source: (TBD)
Launch site: AIR FORCE EASTERN TEST RANGE (AFETR)

Uplink (MHz):
Downlink (MHz): 145.850/436.025
Beacon (MHz): 436.025
Mode: 9600bps GFSK CW
Call sign: OK0BDS
Status: Active

Your satellite tracking list
Your tracking list is empty




NASA's NSSDC Master Catalog

Two Line Element Set (TLE):
1 52175U 22033U   23156.47384711  .00028164  00000-0  75425-3 0  9999
2 52175  97.3562 239.6018 0010560 184.9695 175.1446 15.37925953 65612
Source of the keplerian elements: AFSPC